TimeCDT,TemperatureF,Dew PointF,Humidity,Sea Level PressureIn,VisibilityMPH,Wind Direction,Wind SpeedMPH,Gust SpeedMPH,PrecipitationIn,Events,Conditions,WindDirDegrees,DateUTC
12:52 AM,55.0,51.1,86,30.13,10.0,SSE,11.5,-,N/A,,Clear,160,2013-10-29 05:52:00
1:52 AM,55.0,52.0,89,30.12,10.0,SSE,11.5,-,N/A,,Clear,150,2013-10-29 06:52:00
2:52 AM,55.0,53.1,93,30.12,7.0,SSE,16.1,-,0.01,Rain,Light Rain,150,2013-10-29 07:52:00
3:52 AM,55.9,54.0,93,30.11,5.0,SSE,13.8,-,0.14,Rain,Rain,150,2013-10-29 08:52:00
4:52 AM,55.9,54.0,93,30.07,6.0,SSE,18.4,-,0.10,Rain,Light Rain,150,2013-10-29 09:52:00
5:43 AM,57.0,55.0,93,30.07,4.0,SSE,21.9,28.8,0.06,Rain-Thunderstorm,Heavy Rain,150,2013-10-29 10:43:00
5:52 AM,57.0,55.0,93,30.06,5.0,SE,16.1,28.8,0.09,Rain-Thunderstorm,Heavy Rain,140,2013-10-29 10:52:00
6:04 AM,57.0,55.0,93,30.09,2.5,SE,16.1,-,0.08,Rain-Thunderstorm,Heavy Thunderstorms and Rain,130,2013-10-29 11:04:00
6:14 AM,57.0,55.0,93,30.09,1.8,SE,15.0,-,0.23,Rain-Thunderstorm,Heavy Thunderstorms and Rain,140,2013-10-29 11:14:00
6:46 AM,57.2,55.4,94,30.08,2.0,East,9.2,-,0.94,Rain-Thunderstorm,Heavy Thunderstorms and Rain,80,2013-10-29 11:46:00
6:52 AM,57.0,55.0,93,30.08,2.5,East,9.2,-,1.01,Rain-Thunderstorm,Heavy Thunderstorms and Rain,80,2013-10-29 11:52:00
7:00 AM,57.0,55.0,93,30.08,2.5,NE,8.1,-,0.10,Rain-Thunderstorm,Heavy Rain,50,2013-10-29 12:00:00
7:13 AM,57.0,55.0,93,30.12,2.5,NNE,10.4,-,0.24,Rain-Thunderstorm,Heavy Rain,20,2013-10-29 12:13:00
7:21 AM,57.0,55.0,93,30.10,2.0,East,9.2,-,0.37,Rain,Heavy Rain,90,2013-10-29 12:21:00
7:23 AM,57.0,55.0,93,30.11,2.5,Variable,5.8,-,0.39,Rain-Thunderstorm,Heavy Rain,0,2013-10-29 12:23:00
7:37 AM,55.9,55.0,97,30.09,1.5,ENE,12.7,-,0.67,Rain,Heavy Rain,60,2013-10-29 12:37:00
7:42 AM,55.9,55.0,97,30.10,3.0,ENE,12.7,-,0.68,Rain,Light Rain,70,2013-10-29 12:42:00
7:52 AM,57.0,55.0,93,30.09,7.0,ESE,13.8,-,0.69,Rain,Light Rain,120,2013-10-29 12:52:00
8:04 AM,57.0,55.0,93,30.09,9.0,SE,16.1,-,0.02,Rain,Rain,130,2013-10-29 13:04:00
8:11 AM,57.0,55.0,93,30.09,10.0,SSE,18.4,24.2,0.03,Rain,Light Rain,150,2013-10-29 13:11:00
8:29 AM,57.9,55.0,90,30.09,9.0,SSE,12.7,-,0.08,Rain,Light Rain,150,2013-10-29 13:29:00
8:52 AM,57.9,55.0,90,30.09,8.0,SSE,13.8,-,0.11,Rain,Light Rain,150,2013-10-29 13:52:00
9:15 AM,57.9,55.9,93,30.09,10.0,SSE,15.0,-,0.00,,Overcast,160,2013-10-29 14:15:00
9:29 AM,57.9,55.9,93,30.10,10.0,SSE,17.3,-,0.00,,Overcast,150,2013-10-29 14:29:00
9:36 AM,57.9,55.9,93,30.10,10.0,SE,17.3,-,0.00,,Overcast,140,2013-10-29 14:36:00
9:52 AM,57.9,55.9,93,30.09,9.0,SE,16.1,-,0.00,,Overcast,140,2013-10-29 14:52:00
10:06 AM,57.9,55.9,93,30.10,9.0,SSE,17.3,-,N/A,,Overcast,150,2013-10-29 15:06:00
10:29 AM,59.0,55.9,90,30.09,8.0,SE,11.5,-,0.00,Rain,Light Rain,130,2013-10-29 15:29:00
10:52 AM,59.0,57.0,93,30.10,2.5,SE,11.5,-,0.05,Rain,Rain,130,2013-10-29 15:52:00
11:00 AM,59.0,57.0,93,30.11,3.0,SSE,11.5,-,0.01,Rain,Light Rain,160,2013-10-29 16:00:00
11:52 AM,60.1,57.9,93,30.09,5.0,SSE,12.7,-,0.03,Rain,Light Rain,160,2013-10-29 16:52:00
12:37 PM,60.1,59.0,96,30.07,6.0,SSE,12.7,-,0.02,Rain,Light Rain,160,2013-10-29 17:37:00
12:48 PM,60.8,59.0,94,30.07,2.5,SSE,13.8,-,0.04,Rain,Heavy Rain,160,2013-10-29 17:48:00
12:52 PM,60.1,59.0,96,30.06,2.0,SSE,16.1,-,0.06,Rain,Heavy Rain,160,2013-10-29 17:52:00
1:06 PM,61.0,59.0,93,30.06,5.0,South,12.7,-,0.02,Rain,Light Rain,170,2013-10-29 18:06:00
1:26 PM,62.1,60.1,93,30.05,6.0,SSE,12.7,-,0.03,,Overcast,160,2013-10-29 18:26:00
1:52 PM,62.1,60.1,93,30.02,7.0,SSE,12.7,-,0.03,Rain,Light Rain,160,2013-10-29 18:52:00
2:52 PM,62.1,60.1,93,30.00,7.0,SSE,12.7,-,0.03,,Overcast,150,2013-10-29 19:52:00
3:52 PM,63.0,61.0,93,29.99,7.0,SSE,11.5,-,0.00,,Overcast,150,2013-10-29 20:52:00
4:52 PM,64.0,62.1,93,29.99,8.0,SSE,11.5,-,N/A,,Overcast,150,2013-10-29 21:52:00
5:52 PM,64.0,62.1,93,29.99,7.0,SSE,11.5,-,N/A,,Overcast,160,2013-10-29 22:52:00
6:19 PM,64.0,62.1,93,30.01,8.0,SSE,13.8,-,N/A,,Scattered Clouds,160,2013-10-29 23:19:00
6:52 PM,64.0,62.1,93,30.00,9.0,South,12.7,-,N/A,,Overcast,170,2013-10-29 23:52:00
7:42 PM,64.0,63.0,96,30.03,9.0,SSE,13.8,-,N/A,,Overcast,160,2013-10-30 00:42:00
7:52 PM,64.0,63.0,96,30.02,9.0,SSE,12.7,-,N/A,,Overcast,160,2013-10-30 00:52:00
8:52 PM,64.9,63.0,93,30.03,10.0,SSE,10.4,-,N/A,,Mostly Cloudy,160,2013-10-30 01:52:00
9:52 PM,64.9,63.0,93,30.03,10.0,South,11.5,-,N/A,,Overcast,170,2013-10-30 02:52:00
10:52 PM,64.9,63.0,93,30.03,10.0,SSE,10.4,-,N/A,,Overcast,160,2013-10-30 03:52:00
11:52 PM,64.9,63.0,93,30.03,10.0,SSE,10.4,-,N/A,,Overcast,160,2013-10-30 04:52:00